Tracking 22993 objects as of 10-May-2021
HD Live streaming from Space Station
objects crossing your sky now

COSMOS 1249 COOLANT

Track COSMOS 1249 COOLANT now!
10-day predictions


NORAD ID: 27569
Int'l Code: 1981-021R
Perigee: 901.9 km
Apogee: 960.1 km
Inclination: 65.0 °
Period: 103.5 minutes
Semi major axis: 7301 km
RCS: 0.0062 m2 (small)
Launch date: March 5, 1981
Source: Commonwealth of Independent States (former USSR) (CIS)
Launch site: TYURATAM MISSILE AND SPACE COMPLEX (TTMTR)

Note: This is SATELLITE DEBRIS
aabbcc
Your satellite tracking list
Your tracking list is empty




NASA's NSSDC Master Catalog

Two Line Element Set (TLE):
1 27569U 81021R   21128.47691656 -.00000004  00000-0  68347-4 0  9996
2 27569  64.9587 148.0477 0039865 161.8068 198.4432 13.91373533957776
Source of the keplerian elements: AFSPC